Home > Weather > Adamstown > Past weeks

Flag for Pitcairn Islands Weather for the Past 2 Weeks in Adamstown, Pitcairn Islands

Now
72 °F

Mild.


Feels Like: 70 °F
Forecast: 73 / 76 °F
Wind: 2 mph from South

Location: Rikitea

Current Time: May 2, 2016 at 11:30:28 PM

Latest Report: May 2, 2016 at 10:00 PM


Visibility: N/A

Pressure: 29.96 "Hg

Humidity: 89%

Dew Point: 69 °F

Location of AdamstownLocation

Historic Weather in Adamstown — Graph

°F

Adamstown Temperature Yesterday

Maximum temperature yesterday: 79 °F (at 12:00 PM)
Minimum temperature yesterday: 72 °F (at 6:00 AM)
Average temperature yesterday: 75 °F

High & Low Weather Summary for the Past Weeks

 TemperatureHumidityPressure
High82 °F (Apr 27, 12:00 PM)95% (Apr 26, 4:00 AM)30.11 "Hg (Apr 26, 4:00 AM)
Low70 °F (Apr 23, 3:00 AM)59% (Apr 23, 10:00 AM)29.72 "Hg (Apr 20, 4:00 PM)
Average75 °F79%29.92 "Hg
* Reported Apr 17 11:00 PM — May 2 8:00 PM, Adamstown, Weather by CustomWeather, © 2016

Note: Actual official high and low records may vary slightly from our data, if they occured in-between our weather recording intervals... More about our weather records

Advertising

Adamstown Weather History for the Previous 24 Hours

Scroll right to see more
 ConditionsComfort  
Time TempWeatherWind HumidityBarometerVisibility
8:00 PM
Mon, May 2
74 °FMild.3 mph77%29.93 "HgN/A
7:00 PM74 °FMild.2 mph75%29.93 "HgN/A
5:00 PM76 °FOvercast.2 mph71%29.90 "Hg25 mi
4:00 PM77 °FPartly sunny.1 mph70%29.90 "Hg25 mi
3:00 PM76 °FPartly sunny.2 mph70%29.90 "Hg25 mi
2:00 PM78 °FPartly sunny.3 mph66%29.93 "Hg31 mi
1:00 PM78 °FScattered clouds.2 mph66%29.95 "Hg31 mi
12:00 PM78 °FScattered clouds.3 mph67%29.95 "Hg31 mi
11:00 AM76 °FOvercast.2 mph69%29.97 "Hg25 mi
10:00 AM76 °FOvercast.2 mph69%29.98 "Hg25 mi
9:00 AM74 °FOvercast.3 mph73%29.96 "Hg25 mi
8:00 AM74 °FOvercast.3 mph72%29.95 "Hg25 mi
7:00 AM74 °FOvercast.3 mph73%29.94 "Hg25 mi
6:00 AM74 °FMild.2 mph70%29.92 "HgN/A
5:00 AM74 °FMild.2 mph68%29.92 "HgN/A
4:00 AM73 °FMild.1 mph68%29.92 "HgN/A
3:00 AM74 °FMild.2 mph68%29.94 "HgN/A
2:00 AM73 °FMild.2 mph68%29.94 "HgN/A
1:00 AM74 °FMild.2 mph68%29.96 "HgN/A
11:00 PM
Sun, May 1
73 °FMild.2 mph68%29.97 "HgN/A
Weather by CustomWeather, © 2016

See weather overviewHow to use our weather pages